Regional Weather Roundup
Issued by NWS Raleigh/Durham, NC

Home | Current Version | Previous Version | Text Only | Print | Product List | Glossary On
Versions: 1 2 3 4 5 6 7 8 9 10 11 12 13 14 15 16 17 18 19 20 21 22 23 24 25 26 27 28
000
ASUS42 KRAH 232210
RWRRAH
NORTH CAROLINA WEATHER ROUNDUP
NATIONAL WEATHER SERVICE RALEIGH NC
600 PM EDT WED APR 23 2014

NOTE: "FAIR" INDICATES FEW OR NO CLOUDS BELOW 12,000 FEET WITH NO
SIGNIFICANT WEATHER AND/OR OBSTRUCTIONS TO VISIBILITY.

NCZ001-053-055-056-065-067-232300-
WESTERN NORTH CAROLINA

CITY           SKY/WX    TMP DP  RH WIND       PRES   REMARKS
ASHEVILLE      SUNNY     68  25  19 N13G21    29.94R
JEFFERSON      SUNNY     60  13  16 W13G20    29.93S
MORGANTON      SUNNY     73  16  11 NW12G17   29.93R
HICKORY        SUNNY     72  21  14 N9G18     29.87R
RUTHERFORDTON  SUNNY     75  25  15 N8        29.87R
MOUNT AIRY     SUNNY     69  19  15 N10G17    29.88R
BOONE          SUNNY     60  15  17 W17G26    29.94S
$$

NCZ021-022-025-041-071-084-088-232300-
CENTRAL NORTH CAROLINA

CITY           SKY/WX    TMP DP  RH WIND       PRES   REMARKS
CHARLOTTE      MOSUNNY   76  27  16 N5        29.86R
GREENSBORO     MOSUNNY   72  22  15 NW12      29.85S
WINSTON-SALEM  SUNNY     72  20  14 NW13G21   29.87R
RALEIGH-DURHAM MOSUNNY   71  25  17 N10       29.84R
FORT BRAGG     SUNNY     75  28  18 NW13      29.83R
FAYETTEVILLE   SUNNY     76  25  15 NW14      29.82S
CHAPEL HILL    SUNNY     71  27  19 W12G21    29.85R
BURLINGTON     SUNNY     72  23  16 NW14G22   29.85R
LAURINBURG     SUNNY     76  27  16 NW13      29.83R
$$

NCZ011-015-027-028-043-044-047-080-103-232300-
NORTHEASTERN NORTH CAROLINA

CITY           SKY/WX    TMP DP  RH WIND       PRES   REMARKS
ROCKY MT-WILSO SUNNY     70  29  21 NW9       29.83R
GREENVILLE     SUNNY     70  32  24 NW13G18   29.86R
WASHINGTON     SUNNY     71  20  14 N10G17    29.81
ELIZABETH CITY SUNNY     68  33  27 NW15G23   29.80R
MANTEO         SUNNY     59  39  47 E10       29.81R
CAPE HATTERAS  SUNNY     60  37  42 E10       29.81R
$$

NCZ078-087-090-091-093-098-101-232300-
SOUTHEASTERN NORTH CAROLINA

CITY           SKY/WX    TMP DP  RH WIND       PRES   REMARKS
LUMBERTON      SUNNY     75  35  23 W14G21    29.81R
GOLDSBORO      SUNNY     72  32  23 NW10      29.82R
KINSTON        SUNNY     72  30  21 NW12G18   29.84R
KENANSVILLE    SUNNY     71  27  19 NW12      29.84R
NEW BERN       SUNNY     72  36  26 NW13G21   29.82R
CHERRY POINT   SUNNY     73  33  23 N14G22    29.81R
BEAUFORT       SUNNY     72  43  35 N14       29.79R
JACKSONVILLE   SUNNY     73  29  19 NW15      29.81R
WILMINGTON     SUNNY     79  34  19 NW13      29.80R
$$




USA.gov is the U.S. government's official web portal to all federal, state and local government web resources and services.